Preview of NWS' New Version of Forecast
This preview is not operational and should not be used for support decisions.

Regional Weather Roundup (RWR)

Issued by National Weather Service (NWS)

                            
000
ASUS45 KBOU 251910
RWRCO 

WEATHER ROUNDUP FOR COLORADO
NATIONAL WEATHER SERVICE DENVER/BOULDER CO
100 PM MDT THU APR 25 2019

NOTE: "FAIR" INDICATES FEW OR NO CLOUDS BELOW 12000 FEET WITH NO
SIGNIFICANT WEATHER AND/OR OBSTRUCTIONS TO VISIBILITY.

COZ001>005-013-030-031-252000-
...NORTHWEST COLORADO...
  
CITY           SKY/WX    TMP DP  RH WIND       PRES   REMARKS
CRAIG          PTSUNNY   62  33  33 CALM      30.19F                  
HAYDEN         FAIR      59  29  31 NW8G18    30.21F                  
MEEKER         FAIR      63  29  27 SW7       30.19F                  
RANGELY        FAIR      65  37  35 SW7       30.17S                  
RABBIT EARS PA FAIR      43  27  52 W7G21     30.34F                  
STEAMBOAT SPGS PTSUNNY   58  31  35 SW9G20    30.20F                  
WALDEN         PTSUNNY   55  23  28 W7G18     30.25S                  
$$

COZ006>008-011-252000-
...WEST CENTRAL VALLEYS...
  
CITY           SKY/WX    TMP DP  RH WIND       PRES   REMARKS
GRAND JUNCTION FAIR      71  33  24 SE6       30.12F                  
MONTROSE       FAIR      68  33  27 NE6       30.18F                  
EAGLE          FAIR      64  24  21 VRB5      30.18F                  
RIFLE          FAIR      69  31  24 VRB3      30.14F                  
DELTA          FAIR      72  32  22 SW5       30.15S                  
NUCLA          NOT AVBL                                               
$$

COZ017>023-064>068-252000-
...SOUTHWEST COLORADO...
  
CITY           SKY/WX    TMP DP  RH WIND       PRES   REMARKS
DURANGO        FAIR      67  30  25 VRB3      30.16F                  
CORTEZ         FAIR      72  35  25 W10G17    30.15S                  
PAGOSA SPRINGS FAIR      66  26  22 SW10      30.21F                  
TELLURIDE      FAIR      57  23  26 W12       30.31S                  
WOLF CREEK PAS FAIR      43  21  42 S7        30.47S                  
$$

COZ009-010-012-014-032>034-037-058>063-252000-
...CENTRAL COLORADO...
  
CITY           SKY/WX    TMP DP  RH WIND       PRES   REMARKS
ASPEN          FAIR      63  18  17 NW9G21    30.21F                  
BUENA VISTA    FAIR      65  -1   7 NW16G26   30.19F                  
COPPER MTN     FAIR      41  10  28 W24G31    30.39S HAZE             
BERTHOUD PASS  PTSUNNY   34  25  69 NW28G37   30.38S WCI  20          
COTTONWOOD PAS FAIR      55   5  13 W5        30.30S                  
GUNNISON       NOT AVBL                                               
GRANBY         FAIR      57  20  23 NW9G18    30.24S                  
KREMMLING      FAIR      61  27  27 NW9       30.21F                  
LEADVILLE      FAIR      48  17  29 W13       30.29F                  
MONARCH PASS   FAIR      43  25  49 SW20G25   30.51S                  
SALIDA         FAIR      69  19  14 N6        30.24F                  
SUNLIGHT       FAIR      43  19  39 W7        30.40S                  
WILKERSON PASS PTSUNNY   45  19  36 W3        30.39S                  
$$

COZ069>075-252000-
...SAN LUIS VALLEY/SANGRE DE CRISTO MOUNTAINS...
  
CITY           SKY/WX    TMP DP  RH WIND       PRES   REMARKS
ALAMOSA        FAIR      64  25  22 VRB3      30.19F                  
DEL NORTE      PTSUNNY   63  32  31 SE7       30.21S                  
LA VETA PASS   NOT AVBL                                               
SAGUACHE       FAIR      63  25  23 NW5       30.21S                  
$$

COZ035-036-038>040-252000-
...NORTHERN COLORADO FRONT RANGE...
  
CITY           SKY/WX    TMP DP  RH WIND       PRES   REMARKS
DENVER INTL AP FAIR      58  29  33 NE6       30.21F                  
AURORA         MOSUNNY   57  28  33 N7        30.21F                  
FRONT RANGE AP MOSUNNY   57  32  38 NE6       30.22F                  
ERIE MUNI ARPT FAIR      60  27  28 CALM      30.25F                  
BOULDER MUN AP FAIR      59  30  33 E7        30.20F                  
CENTENNIAL     FAIR      57  29  34 VRB5      30.21F                  
BROOMFIELD     NOT AVBL                                               
FORT COLLINS   FAIR      61  27  27 VRB6      30.19F                  
LONGMONT       FAIR      65  30  27 E7        30.21F                  
$$

COZ041-046-047-076>085-087-088-252000-
...PIKES PEAK/PALMER DIVIDE AND SOUTHERN FOOTHILLS...
  
CITY           SKY/WX    TMP DP  RH WIND       PRES   REMARKS
COLO. SPRINGS  FAIR      60  29  30 S5        30.22F                  
A. F. ACADEMY  FAIR      56  30  37 SE3       30.20F                  
SCHRIEVER AFB  NOT AVBL                                               
CHEYENNE MTN   NOT AVBL                                               
ELLICOTT         N/A    N/A N/A N/A NE8G20    30.21F                  
FALCON         FAIR      57  28  31 NE10G21   30.25S                  
FORT CARSON    CLOUDY    58  30  34 CALM      30.20F                  
LIMON          FAIR      59  31  34 N16G26    30.20F                  
MONUMENT HILL  FAIR      52  30  43 N15G22    30.25F                  
CANON CITY     FAIR      64  34  32 SE16G22   30.18F                  
WALSENBURG     NOT AVBL                                               
TRINIDAD       PTSUNNY   60  37  42 N10       30.22F                  
$$

COZ042>045-048>051-090-091-252000-
...NORTHEAST COLORADO...
  
CITY           SKY/WX    TMP DP  RH WIND       PRES   REMARKS
GREELEY ARPT   FAIR      61  25  25 VRB3      30.19F                  
AKRON          FAIR      62  32  32 N22G28    30.18F                  
BURLINGTON     FAIR      65  31  28 N21G33    30.15S                  
WRAY           FAIR      68  28  22 NW17G24   30.14F                  
YUMA           NOT AVBL                                               
STERLING       FAIR      63  32  31 N20G25    30.16F                  
HOLYOKE        FAIR      66  34  30 N16G24    30.15S                  
FORT MORGAN      N/A     64  24  22 NW17G25   30.19F                  
$$

COZ086-089-092>099-252000-
...SOUTHEAST COLORADO...
  
CITY           SKY/WX    TMP DP  RH WIND       PRES   REMARKS
PUEBLO         FAIR      67  32  27 NE8       30.17F                  
LA JUNTA       FAIR      69  32  25 N12G18    30.17F                  
LAMAR          FAIR      67  35  30 N9G23     30.14F                  
SPRINGFIELD      N/A     65  37  35 N20G30    30.15R                  
$$